Temperature
12 12 12 12 12 12 12 12 12 13 13 13 12 12 12 12 12 12 12 12 12 12 12 12 12 12 12 12 12 12 12 12 12 12 12 12 12 12
13 12 12 12 12 12 12 12 12 12 13 12 12 12 12 12 12 11 11 12 12 12 12 12 12 12 12 12 12 12 12 12 12 12 12 12 12 11
12 12 12 12 12 12 12 12 12 12 12 12 12 12 12 11 12 11 11 11 11 12 12 12 12 12 12 12 12 12 11 11 11 11 11 11 11 11
12 12 12 12 12 12 12 12 12 12 11 12 11 12 11 11 11 11 11 11 11 11 11 11 11 11 11 11 11 11 11 11 11 11 11 11 11 11
12 12 12 12 12 12 12 11 11 11 11 11 11 11 11 11 11 11 11 11 11 11 11 11 11 11 11 11 11 11 11 11 11 11 11 11 11 11
11 11 11 11 11 11 11 11 11 11 11 11 11 11 11 11 11 11 10 11 11 10 11 11 11 11 11 11 11 11 11 10 11 11 11 11 11 11
11 11 11 11 11 11 11 11 11 11 10 10 11 10 10 10 10 10 10 10 10 10 10 10 10 10 10 10 10 10 10 10 10 10 10 10 10 10
10 10 11 11 11 11 11 11 11 10 10 10 10 10 10 10 10 10 10 10 10 10 10 10 10 10 10 10 10 10 10 10 10 10 10 10 10 10
10 10 10 10 10 10 10 11 10 10 10 10 10 10 10 10 10 10 9 10 10 10 10 10 10 9 9 9 10 10 10 10 10 10 10 10 10 10
10 10 10 10 10 10 10 10 10 10 10 10 10 10 10 10 9 9 9 9 9 9 10 9 9 9 9 9 10 10 9 9 9 9 9 9 9 9
9 9 9 9 9 10 9 9 9 9 9 10 9 9 10 10 9 9 9 9 9 9 9 9 9 9 9 9 9 9 9 9 9 9 9 9 9 9
9 9 9 9 9 9 9 9 9 9 9 9 9 9 9 9 9 9 9 9 9 9 9 9 8 8 8 8 8 8 8 8 9 9 9 9 9 8
9 9 9 9 9 9 9 8 8 8 8 8 8 8 8 8 8 8 8 8 8 8 8 8 8 8 8 8 8 8 8 8 8 8 8 8 8 8
8 8 8 8 8 8 8 8 8 8 8 8 8 8 8 8 8 8 8 8 8 8 8 8 8 8 8 7 7 7 7 7 7 7 7 8 8 8
8 8 8 8 8 8 7 7 7 7 7 7 7 7 7 7 7 7 7 7 7 7 7 8 7 7 7 7 7 7 7 7 7 7 7 7 7 7
7 7 8 8 7 7 7 7 7 7 6 6 6 6 7 7 7 7 7 7 7 7 7 7 7 7 7 7 7 7 7 6 6 6 6 7 7 7
7 7 7 7 7 7 6 6 6 6 6 6 6 6 6 6 6 6 6 6 6 6 6 6 6 6 6 6 6 6 6 6 6 6 6 6 6 6
7 6 6 6 6 6 6 6 6 6 6 6 6 5 5 6 6 6 6 6 6 6 6 6 6 5 6 6 6 5 5 6 6 6 6 6 6 6
6 6 6 5 5 5 5 5 5 5 5 5 5 5 5 5 5 5 5 5 5 5 5 5 5 5 5 5 5 5 5 5 5 5 5 5 5 5
5 5 5 5 5 5 5 5 5 5 5 5 5 4 4 4 4 5 5 5 5 5 5 4 5 4 5 5 4 5 5 4 4 5 5 5 5 5
5 5 5 5 5 4 4 4 4 4 4 4 4 4 4 4 4 4 4 4 4 4 4 4 4 4 4 4 4 4 4 4 4 4 4 4 4 4
4 4 4 4 4 4 4 4 4 4 3 3 3 3 3 3 3 4 4 4 4 4 4 4 4 4 4 3 3 4 4 4 4 4 4 4 4 4
4 4 4 4 4 4 4 3 3 3 3 3 3 3 3 3 3 3 3 3 3 3 3 3 3 3 3 3 3 3 3 3 3 3 4 4 4 4
Wind_Speed
4 5 4 3 3 3 3 4 4 4 3 2 2 2 2 2 1 3 2 3 2 2 2 2 2 2 1 1 1 1 2 2 2 2 2 2 2 2
3 5 5 4 4 4 4 4 5 5 4 2 3 2 2 2 2 3 1 4 4 3 3 3 3 2 1 1 0 0 1 1 1 1 1 2 2 1
4 5 5 5 4 4 4 5 5 5 5 4 3 2 3 3 3 3 3 3 3 5 5 4 4 3 3 2 2 1 1 1 0 1 0 1 2 1
5 5 5 4 5 5 5 6 5 6 6 6 3 3 4 3 3 3 3 3 3 5 5 5 5 4 3 3 2 2 1 1 1 1 1 1 2 1
5 6 6 5 6 5 6 6 5 5 5 6 5 3 3 3 3 3 4 3 4 4 6 6 6 5 4 4 3 3 2 2 2 2 2 2 2 2
6 6 6 6 6 6 6 6 6 6 5 5 5 4 3 3 3 4 3 3 3 4 4 4 6 7 6 6 5 4 4 4 3 3 3 3 3 3
6 6 7 6 6 6 5 6 6 6 5 6 5 4 4 3 4 4 4 4 4 3 3 4 4 5 6 7 7 5 4 4 4 4 4 4 4 4
7 7 7 7 7 7 7 7 7 7 7 6 6 6 6 5 4 4 5 4 4 3 4 4 4 4 4 4 4 5 4 4 4 4 4 4 4 3
8 8 6 6 7 7 8 8 9 9 8 8 8 8 7 5 5 6 6 6 5 3 4 4 4 4 3 3 6 5 4 4 4 3 3 3 3 3
9 9 8 8 7 7 7 7 8 8 8 8 8 8 6 5 6 6 6 6 5 3 4 4 4 3 3 4 7 6 4 4 4 4 3 3 3 4
9 9 9 9 5 5 7 8 7 6 5 5 5 4 3 3 4 5 5 5 5 4 4 4 3 3 3 4 6 8 6 5 4 4 4 4 4 5
8 8 8 8 6 6 8 8 8 6 5 5 5 5 6 6 7 7 6 6 5 4 4 4 3 2 3 3 3 5 5 5 6 5 4 4 4 5
7 6 6 6 7 7 8 7 7 6 6 6 5 5 5 5 6 6 6 6 6 5 3 4 4 4 3 3 3 4 4 3 4 4 6 5 4 5
7 6 5 5 6 7 7 5 5 4 4 4 4 4 4 5 5 5 6 6 6 5 4 5 4 4 4 3 3 3 3 4 4 3 3 4 5 5
6 5 5 5 7 7 7 6 6 5 4 5 5 4 4 4 4 3 4 4 4 3 4 5 4 4 4 4 3 3 3 3 3 3 3 3 3 3
5 4 5 5 6 5 5 5 5 4 4 5 4 4 3 3 3 3 4 3 3 3 3 4 4 5 4 4 3 4 3 3 3 3 3 2 2 3
5 4 3 3 4 4 4 4 4 4 4 4 4 3 3 3 3 3 3 4 4 4 3 3 3 3 4 4 4 4 3 3 3 4 3 3 3 3
5 4 4 4 4 4 4 4 4 4 4 4 3 3 3 3 3 3 4 4 4 4 3 3 3 2 2 2 3 4 3 3 3 4 4 4 4 3
4 4 5 5 5 4 4 5 4 4 4 4 3 3 3 3 3 3 4 4 4 4 3 3 3 4 4 4 2 2 3 3 3 3 4 4 4 3
4 4 5 5 5 4 4 4 4 4 4 4 4 4 4 4 4 4 4 4 4 4 4 3 4 4 5 4 3 2 3 3 3 3 3 3 3 1
4 4 4 4 4 4 4 4 4 4 4 4 4 4 4 4 4 4 4 4 4 4 5 5 4 4 4 3 3 2 1 1 1 3 3 3 3 3
4 4 4 4 4 4 4 4 4 4 5 5 5 4 4 4 5 5 4 5 4 4 4 3 3 4 4 5 4 3 2 1 0 1 1 2 2 3
3 3 3 3 4 4 4 5 5 4 4 4 4 4 4 4 4 4 5 5 4 4 3 3 3 4 4 5 4 3 3 2 2 1 1 1 1 0
Wind_Direction
243 240 244 250 251 253 253 252 260 267 260 242 237 231 242 248 207 246 230 136 172 188 211 208 171 143 124 98 63 49 41 29 16 21 24 10 12 21
250 250 247 250 249 246 250 252 255 262 265 263 263 247 238 236 229 247 205 149 185 195 210 205 188 183 187 202 202 85 56 4 12 49 35 8 351 351
245 247 248 251 248 244 244 243 245 250 255 262 252 248 244 243 222 237 221 213 188 189 208 204 205 201 207 221 219 215 208 192 140 134 341 326 326 325
256 254 250 243 248 249 242 240 241 244 250 259 250 246 249 248 241 238 231 226 217 178 196 203 206 207 209 207 204 197 185 156 158 183 239 282 284 284
256 256 255 247 244 245 244 245 246 245 245 252 253 246 245 241 242 241 235 233 229 188 192 200 202 206 207 208 208 203 202 213 223 227 244 261 261 265
254 254 255 254 253 249 244 246 247 246 244 248 247 240 233 234 235 236 234 227 233 220 206 203 197 205 210 210 211 210 217 225 231 236 243 246 250 253
254 253 255 259 272 263 253 249 249 248 245 243 243 243 232 224 233 234 240 239 234 229 229 213 206 216 208 206 206 208 219 229 233 235 238 244 251 250
258 257 256 249 254 253 256 261 259 254 251 244 242 241 242 235 233 235 237 237 242 216 234 232 222 227 222 214 172 192 214 222 228 231 235 239 244 246
261 261 259 254 247 251 245 239 242 247 254 255 250 249 248 242 234 236 238 240 251 226 224 234 221 231 221 184 159 181 201 208 213 218 226 233 240 243
257 259 259 257 248 251 253 250 247 240 238 243 251 256 254 246 237 240 241 242 250 217 211 234 224 236 230 197 168 182 196 205 206 208 219 231 241 242
259 258 259 256 242 242 248 250 251 248 231 245 270 266 271 253 233 228 225 225 236 223 208 233 236 246 238 215 182 185 193 199 210 212 216 225 234 234
258 256 253 254 250 232 242 245 246 249 245 237 240 229 226 213 210 224 225 228 232 230 201 221 225 226 236 217 207 205 207 201 209 211 210 218 231 242
257 255 253 231 236 229 241 244 249 254 248 241 236 234 226 220 215 223 228 233 231 232 203 211 226 225 236 240 230 218 216 223 224 221 207 205 227 253
259 258 254 232 231 228 233 240 244 245 243 238 234 235 232 228 225 222 225 230 239 244 212 209 227 225 230 242 246 225 227 230 230 234 229 198 218 242
265 264 255 233 226 225 223 223 221 228 233 235 235 241 245 239 228 222 227 229 234 229 214 220 227 224 227 239 238 236 237 237 227 231 232 225 229 230
266 253 233 228 230 237 228 219 224 231 233 235 239 239 240 234 225 215 216 212 220 222 218 219 225 223 226 239 234 237 234 225 222 229 229 230 242 243
276 265 254 237 227 229 226 224 223 220 224 233 236 236 233 230 232 222 216 215 220 220 214 215 217 220 230 231 231 231 233 234 224 220 221 222 232 239
259 246 243 235 229 222 221 223 223 220 224 232 230 230 233 235 238 226 217 216 219 221 216 207 199 202 223 238 242 235 230 234 234 223 223 224 229 237
240 240 238 234 231 226 224 224 226 226 224 227 227 229 230 231 229 228 226 219 219 220 218 205 203 208 218 230 216 246 249 239 236 231 226 228 234 234
249 247 239 234 228 227 226 225 226 226 224 226 227 230 231 228 230 231 230 230 222 218 216 209 210 218 225 234 232 239 259 240 229 232 227 233 236 242
257 258 247 236 229 225 223 224 224 223 223 224 226 227 230 228 229 231 232 230 232 225 220 218 218 224 237 223 216 217 214 243 264 251 233 230 236 239
260 257 251 239 229 222 217 216 219 220 222 225 227 229 230 230 232 232 234 228 225 229 232 221 195 199 213 217 223 217 209 199 65 24 336 284 243 233
263 260 255 243 229 217 214 217 218 220 222 224 224 227 228 228 231 229 230 228 226 228 227 216 200 200 210 215 221 217 204 200 210 227 259 20 59 115
Height
1531 1531 1531 1531 1531 1532 1532 1532 1533 1531 1531 1531 1530 1529 1528 1527 1526 1526 1526 1525 1525 1525 1524 1524 1524 1524 1524 1524 1524 1523 1522 1522 1522 1522 1522 1522 1522 1522
1528 1529 1528 1529 1528 1528 1529 1529 1530 1530 1529 1528 1527 1527 1526 1525 1525 1525 1524 1523 1523 1523 1523 1523 1523 1523 1522 1522 1522 1522 1521 1521 1521 1521 1521 1521 1521 1521
1526 1526 1525 1525 1525 1525 1526 1526 1526 1527 1526 1526 1525 1524 1524 1523 1523 1522 1522 1521 1521 1521 1521 1521 1521 1521 1521 1521 1520 1520 1520 1520 1519 1519 1519 1520 1520 1520
1523 1523 1522 1522 1522 1522 1522 1522 1523 1523 1523 1522 1522 1521 1521 1521 1520 1520 1519 1519 1519 1519 1519 1519 1519 1519 1518 1518 1518 1518 1518 1518 1518 1518 1518 1518 1518 1518
1519 1519 1519 1518 1518 1518 1518 1519 1519 1519 1519 1519 1519 1518 1518 1517 1517 1517 1517 1516 1517 1516 1516 1516 1516 1516 1516 1516 1516 1516 1516 1516 1516 1516 1516 1516 1516 1516
1516 1515 1515 1515 1515 1515 1514 1515 1515 1515 1515 1515 1515 1515 1514 1514 1514 1514 1514 1514 1514 1514 1513 1513 1513 1513 1513 1513 1513 1514 1514 1514 1514 1514 1514 1514 1514 1514
1511 1511 1511 1510 1510 1510 1510 1511 1511 1511 1511 1511 1511 1511 1511 1510 1510 1511 1511 1511 1511 1511 1510 1510 1510 1511 1511 1510 1511 1511 1511 1511 1511 1511 1511 1511 1511 1511
1507 1507 1506 1506 1506 1506 1506 1506 1506 1507 1507 1507 1507 1507 1507 1507 1507 1507 1508 1508 1508 1508 1507 1508 1508 1508 1508 1508 1508 1508 1508 1508 1508 1508 1508 1508 1508 1508
1502 1502 1502 1501 1501 1501 1501 1501 1501 1502 1502 1503 1503 1503 1503 1503 1503 1503 1504 1504 1504 1504 1504 1504 1504 1504 1504 1504 1504 1504 1505 1505 1505 1505 1505 1505 1505 1505
1497 1497 1497 1496 1496 1496 1496 1496 1496 1497 1497 1497 1498 1498 1498 1499 1499 1499 1500 1500 1501 1500 1500 1501 1501 1501 1501 1501 1500 1501 1501 1501 1501 1501 1501 1502 1502 1502
1492 1492 1491 1491 1491 1491 1491 1491 1491 1491 1492 1492 1493 1493 1493 1494 1494 1495 1495 1496 1496 1496 1496 1497 1497 1497 1497 1497 1497 1497 1497 1497 1498 1498 1498 1498 1499 1499
1487 1486 1486 1486 1486 1486 1486 1486 1485 1486 1486 1487 1487 1488 1488 1488 1489 1490 1490 1491 1492 1492 1491 1492 1493 1493 1493 1493 1493 1494 1494 1494 1494 1494 1495 1495 1495 1496
1481 1480 1480 1480 1480 1480 1481 1480 1480 1481 1481 1481 1482 1482 1483 1483 1484 1484 1485 1486 1487 1487 1488 1488 1488 1489 1490 1490 1490 1490 1490 1490 1491 1491 1491 1491 1492 1492
1475 1474 1474 1474 1474 1474 1475 1475 1476 1476 1476 1476 1477 1477 1478 1478 1479 1479 1480 1481 1482 1483 1483 1484 1484 1484 1485 1485 1486 1486 1486 1486 1487 1487 1488 1488 1488 1488
1469 1468 1468 1468 1468 1469 1469 1470 1470 1471 1471 1472 1472 1472 1473 1474 1475 1475 1475 1476 1477 1478 1478 1479 1480 1480 1481 1481 1481 1482 1482 1482 1483 1484 1484 1484 1484 1485
1464 1463 1463 1463 1463 1463 1464 1464 1465 1465 1466 1467 1467 1468 1469 1469 1470 1470 1471 1471 1472 1473 1474 1474 1475 1476 1476 1477 1478 1478 1479 1479 1479 1480 1480 1481 1481 1482
1459 1458 1458 1457 1457 1457 1458 1459 1460 1460 1461 1462 1463 1464 1464 1465 1465 1466 1467 1468 1468 1469 1469 1470 1471 1471 1472 1473 1474 1474 1475 1476 1476 1477 1477 1477 1477 1478
1454 1452 1452 1452 1452 1452 1453 1454 1455 1455 1456 1457 1458 1459 1460 1460 1461 1462 1463 1464 1464 1465 1466 1466 1467 1468 1469 1470 1471 1470 1471 1472 1472 1473 1474 1474 1474 1475
1448 1447 1447 1447 1447 1448 1448 1449 1450 1451 1452 1453 1454 1455 1456 1456 1457 1458 1459 1460 1460 1462 1462 1463 1463 1464 1465 1465 1466 1467 1468 1468 1468 1469 1470 1470 1471 1471
1443 1442 1442 1442 1443 1443 1444 1445 1446 1447 1447 1448 1449 1450 1451 1452 1453 1454 1455 1455 1456 1457 1458 1459 1459 1460 1461 1463 1463 1463 1464 1464 1465 1465 1466 1467 1468 1468
1438 1438 1437 1438 1438 1438 1439 1440 1441 1442 1443 1444 1445 1446 1446 1447 1448 1449 1450 1451 1452 1453 1454 1454 1455 1457 1458 1460 1460 1460 1460 1461 1462 1462 1463 1463 1463 1464
1433 1433 1432 1432 1433 1434 1434 1435 1436 1437 1438 1439 1440 1441 1442 1442 1443 1444 1446 1446 1447 1449 1450 1451 1452 1453 1454 1455 1456 1457 1457 1458 1458 1459 1460 1460 1460 1460
1429 1428 1428 1428 1428 1429 1430 1431 1432 1433 1434 1435 1436 1436 1437 1438 1439 1440 1441 1442 1443 1445 1446 1446 1448 1449 1450 1451 1453 1453 1454 1454 1455 1455 1456 1456 1457 1458